This demonstration page uses our WeatherBlox Daily Observations layout. Learn more.

Left ArrowRight Arrow

39.51506, -84.39828

Hourly Observations for March 31, 2018

Temp ( °F °C ) Dew Point ( °F °C ) Humidity (%) Winds ( mph kmh ) Pressure ( in mb ) Visibility ( mi km ) Precip ( " mm )
12:15 am 00:15 Clear with Mist and Fog 33 0.5 33 0.3 99 99 N N/A 30.3 1026 7 11.26538 N/A
12:35 am 00:35 Clear 32 -0.1 31 -0.3 99 99 NNE 3 6 30.3 1026 10 16.0934 N/A
12:55 am 00:55 Clear 31 -0.6 31 -0.8 99 99 N N/A 30.3 1026 10 16.0934 N/A
1:15 am 01:15 Mostly Cloudy with Freezing Fog 30 -1 30 -1.2 99 99 N N/A 30.3 1026 0.25 0.402335 N/A
1:35 am 01:35 Cloudy with Freezing Fog 30 -1.1 30 -1.2 99 99 N N/A 30.3 1026 5 8.0467 N/A
1:55 am 01:55 Cloudy with Freezing Fog 30 -1.3 29 -1.4 99 99 N N/A 30.3 1026 5 8.0467 N/A
2:15 am 02:15 Mostly Cloudy with Freezing Fog 29 -1.4 29 -1.5 99 99 N N/A 30.3 1026 0.25 0.402335 N/A
2:35 am 02:35 Mostly Clear with Freezing Fog 30 -1.2 29 -1.4 99 99 N N/A 30.3 1026 5 8.0467 N/A
2:55 am 02:55 Mostly Clear with Freezing Fog 29 -1.4 29 -1.5 99 99 N N/A 30.3 1026 0.25 0.402335 N/A
3:15 am 03:15 Cloudy with Freezing Fog 28 -2.4 28 -2.5 99 99 N N/A 30.3 1026 0.25 0.402335 N/A
3:35 am 03:35 Cloudy with Freezing Fog 30 -1.3 29 -1.4 99 99 N N/A 30.3 1026 5 8.0467 N/A
3:55 am 03:55 Cloudy with Freezing Fog 30 -0.9 30 -1 99 99 N N/A 30.3 1026 5 8.0467 N/A
4:15 am 04:15 Cloudy with Freezing Fog 30 -0.9 30 -1 99 99 N N/A 30.3 1026 5 8.0467 N/A
4:35 am 04:35 Cloudy with Freezing Fog 30 -0.9 30 -0.9 100 100 N N/A 30.3 1026 5 8.0467 N/A
4:55 am 04:55 Cloudy with Freezing Fog 30 -1.1 30 -1.2 99 99 N N/A 30.3 1026 5 8.0467 N/A
5:15 am 05:15 Cloudy with Freezing Fog 30 -1.2 30 -1.3 99 99 N N/A 30.3 1026 5 8.0467 N/A
5:35 am 05:35 Cloudy with Freezing Fog 30 -1 30 -1.1 99 99 N N/A 30.3 1026 5 8.0467 N/A
5:55 am 05:55 Cloudy with Freezing Fog 31 -0.8 30 -0.9 99 99 N N/A 30.27 1025 5 8.0467 N/A
6:15 am 06:15 Cloudy with Freezing Fog 30 -1.1 30 -1.1 100 100 N N/A 30.27 1025 5 8.0467 N/A
6:35 am 06:35 Cloudy with Freezing Fog 30 -1.3 29 -1.4 99 99 N N/A 30.27 1025 5 8.0467 N/A
6:55 am 06:55 Cloudy with Freezing Fog 29 -1.5 29 -1.6 99 99 N N/A 30.27 1025 5 8.0467 N/A
7:15 am 07:15 Cloudy with Freezing Fog 29 -1.9 28 -2.1 99 99 N N/A 30.27 1025 5 8.0467 N/A
7:35 am 07:35 Cloudy with Freezing Fog 28 -2.3 28 -2.5 99 99 WSW 3 6 30.27 1025 5 8.0467 N/A
7:55 am 07:55 Cloudy with Freezing Fog 28 -2.3 28 -2.5 99 99 N N/A 30.27 1025 5 8.0467 N/A
8:15 am 08:15 Cloudy with Freezing Fog 30 -1.3 29 -1.5 99 99 N N/A 30.27 1025 5 8.0467 N/A
8:35 am 08:35 Cloudy with Freezing Fog 31 -0.6 31 -0.7 99 99 N N/A 30.27 1025 5 8.0467 N/A
8:55 am 08:55 Cloudy with Fog 32 0.2 32 0.2 100 100 N N/A 30.27 1025 5 8.0467 N/A
9:15 am 09:15 Mostly Cloudy with Mist and Fog 37 2.9 37 2.8 99 99 N N/A 30.24 1024 1.75 2.816345 N/A
9:35 am 09:35 Sunny with Mist and Fog 40 4.3 39 4 98 98 SSW 3 6 30.24 1024 4 6.43736 N/A
9:55 am 09:55 Sunny with Mist and Fog 42 5.4 40 4.7 95 95 SW 6 9 30.24 1024 5 8.0467 N/A
10:15 am 10:15 Sunny 44 6.6 41 5.2 91 91 SSW 9 15 30.24 1024 7 11.26538 N/A
10:35 am 10:35 Sunny 46 7.5 40 4.6 82 82 S 10 17 30.21 1023 10 16.0934 N/A
10:55 am 10:55 Sunny 47 8.5 40 4.4 76 76 SSW 13 20 30.21 1023 10 16.0934 N/A
11:15 am 11:15 Sunny 48 9.1 40 4.6 74 74 SSW 13 20 30.21 1023 10 16.0934 N/A
11:35 am 11:35 Sunny 52 10.9 37 2.8 58 58 S 14 22 30.21 1023 10 16.0934 N/A
11:55 am 11:55 Sunny 53 11.7 37 2.7 54 54 S 20 31 30.18 1022 10 16.0934 N/A
12:15 pm 12:15 Sunny 53 11.6 37 2.7 55 55 S 14 22 30.18 1022 10 16.0934 N/A
12:35 pm 12:35 Sunny 53 11.9 38 3.3 56 56 SSW 12 19 30.18 1022 10 16.0934 N/A
12:55 pm 12:55 Sunny 55 12.8 38 3.5 53 53 SSW 15 24 30.15 1021 10 16.0934 N/A
1:15 pm 13:15 Sunny 57 13.7 37 2.9 48 48 SW 18 30 30.15 1021 10 16.0934 N/A
1:35 pm 13:35 Sunny 58 14.2 38 3.1 47 47 SSW 23 37 30.12 1020 10 16.0934 N/A
1:55 pm 13:55 Sunny 57 14.1 37 2.8 47 47 SSW 21 33 30.12 1020 10 16.0934 N/A
2:15 pm 14:15 Partly Cloudy 59 14.9 38 3.1 45 45 SSW 22 35 30.09 1019 10 16.0934 N/A
2:35 pm 14:35 Mostly Cloudy 60 15.3 37 2.9 44 44 SSW 24 39 30.09 1019 10 16.0934 N/A
2:55 pm 14:55 Cloudy 58 14.2 36 2.1 44 44 SSW 20 31 30.06 1018 10 16.0934 N/A
3:15 pm 15:15 Cloudy 58 14.5 36 2.4 44 44 SSW 21 33 30.06 1018 10 16.0934 N/A
3:35 pm 15:35 Mostly Cloudy 60 15.4 37 2.6 42 42 SSW 18 30 30.06 1018 10 16.0934 N/A
3:55 pm 15:55 Cloudy 58 14.6 35 1.9 42 42 SSW 22 35 30.06 1018 10 16.0934 N/A
4:15 pm 16:15 Cloudy 59 15.2 34 1 38 38 SW 23 37 30.03 1017 10 16.0934 N/A
4:35 pm 16:35 Cloudy 59 15.1 35 1.7 41 41 SW 25 41 30.03 1017 10 16.0934 N/A
4:55 pm 16:55 Cloudy 59 15 35 1.6 41 41 SSW 22 35 30 1016 10 16.0934 N/A
5:15 pm 17:15 Cloudy 59 14.8 34 1.2 40 40 SSW 21 33 30 1016 10 16.0934 N/A
5:35 pm 17:35 Cloudy 58 14.4 36 2.3 44 44 SW 18 30 30 1016 10 16.0934 N/A
5:55 pm 17:55 Cloudy with Light Rain 56 13.5 37 2.8 49 49 SW 24 39 30 1016 10 16.0934 N/A
6:15 pm 18:15 Cloudy with Light Rain 55 12.7 39 3.7 55 55 WSW 17 28 30.03 1017 10 16.0934 N/A
6:35 pm 18:35 Cloudy with Light Rain 52 11.1 42 5.7 70 70 SW 14 22 30.03 1017 10 16.0934 0.01 0.254
6:55 pm 18:55 Cloudy with Light Rain 51 10.5 44 6.4 76 76 SW 12 19 30.03 1017 10 16.0934 0.02 0.508
7:15 pm 19:15 Cloudy with Light Rain 51 10.4 44 6.7 78 78 SW 10 17 30.03 1017 10 16.0934 0.01 0.254
7:35 pm 19:35 Cloudy with Light Rain 50 10.2 44 6.7 79 79 WSW 14 22 30.06 1018 10 16.0934 0.03 0.762
8:15 pm 20:15 Cloudy with Light Rain 49 9.7 44 6.9 83 83 SW 13 20 30.06 1018 10 16.0934 0.01 0.254
8:35 pm 20:35 Cloudy with Light Rain 49 9.6 45 7.2 85 85 SSW 13 20 30.06 1018 10 16.0934 0.02 0.508
8:55 pm 20:55 Cloudy with Light Rain 49 9.3 45 7.2 87 87 SSW 12 19 30.06 1018 7 11.26538 0.04 1.016
9:15 pm 21:15 Cloudy with Light Rain 49 9.2 45 7.4 89 89 SW 9 15 30.06 1018 10 16.0934 0.01 0.254
9:35 pm 21:35 Cloudy with Light Rain 48 8.9 46 7.5 91 91 SW 9 15 30.06 1018 10 16.0934 0.03 0.762
9:55 pm 21:55 Cloudy with Light Rain 48 8.9 46 7.6 92 92 SW 8 13 30.06 1018 10 16.0934 0.04 1.016
10:15 pm 22:15 Cloudy with Light Rain 48 8.9 46 7.7 92 92 SW 8 13 30.06 1018 10 16.0934 N/A
10:35 pm 22:35 Cloudy 48 8.8 46 7.7 93 93 SW 8 13 30.06 1018 10 16.0934 N/A
10:55 pm 22:55 Cloudy 48 8.9 46 7.7 92 92 SW 8 13 30.06 1018 10 16.0934 N/A
11:15 pm 23:15 Cloudy 48 9 46 7.6 91 91 SW 9 15 30.06 1018 10 16.0934 N/A
11:35 pm 23:35 Cloudy 48 9 46 7.7 92 92 SW 10 17 30.06 1018 10 16.0934 N/A
11:55 pm 23:55 Cloudy 49 9.3 46 7.7 90 90 SW 12 19 30.06 1018 10 16.0934 N/A

Powered by AerisWeather